Storm Lake, IA

10:48 AM CDT on July 20, 2017 (GMT -0500)
Storm Lake Municipal

Weather History for KSLB - June, 2014

Change the Weather History Date:

Tuesday, June 10, 2014

  Actual Average Record
Temperature  
Mean Temperature 66 °F -  
Max Temperature 77 °F 77 °F 95 °F (2016)
Min Temperature 55 °F 57 °F 53 °F (1997)
Cooling Degree Days 1    
Growing Degree Days 16 (Base 50)    
Moisture  
Dew Point 56 °F    
Average Humidity 70    
Maximum Humidity 100    
Minimum Humidity 47    
Precipitation  
Precipitation 0.00 in - - ()
Sea Level Pressure  
Sea Level Pressure 29.91 in    
Wind  
Wind Speed 9 mph (East)    
Max Wind Speed 12 mph    
Max Gust Speed 16 mph    
Visibility 10 miles    
Events      
Averages and records for this station are not official NWS values.
T = Trace of Precipitation, MM = Missing Value Source: NWS Daily Summary

Daily Weather History Graph

Daily Weather History Graph

Search for Another Location

Airport or City:

Trip Planner

Search our weather history database for the weather conditions in past years. The results will help you decide how hot, cold, wet, or windy it might be!

Date:

Astronomy

Jun. 10, 2014 Rise Set
Actual Time 5:43 AM CDT 8:58 PM CDT
Civil Twilight 5:08 AM CDT 9:32 PM CDT
Nautical Twilight 4:23 AM CDT 10:17 PM CDT
Astronomical Twilight 3:28 AM CDT 11:12 PM CDT
Moon 6:21 PM CDT (6/10) 3:53 AM CDT (6/10)
Length of Visible Light 16h 24m
Length of Day
15h 15m
Waxing Gibbous, 92% of the Moon is Illuminated
Jun 10
Waxing Gibbous
Jun 12
Full
Jun 19
Last Quarter
Jun 27
New
Jul 5
First Quarter

Hourly Weather History & Observations

Time (CDT) Temp. Dew Point Humidity Pressure Visibility Wind Dir Wind Speed Gust Speed Precip Events Conditions
12:15 AM 62.6 °F 53.6 °F 72% 29.95 in 10.0 mi NE 8.1 mph - N/A   Clear
12:35 AM 60.8 °F 55.4 °F 82% 29.95 in 10.0 mi NNE 9.2 mph - N/A   Clear
12:55 AM 60.8 °F 55.4 °F 82% 29.95 in 10.0 mi NE 9.2 mph - N/A   Clear
1:15 AM 60.8 °F 55.4 °F 82% 29.95 in 10.0 mi NNE 8.1 mph - N/A   Clear
1:35 AM 60.8 °F 55.4 °F 82% 29.94 in 10.0 mi NE 8.1 mph - N/A   Clear
1:55 AM 60.8 °F 55.4 °F 82% 29.94 in 10.0 mi NE 10.4 mph - N/A   Clear
2:15 AM 60.8 °F 53.6 °F 77% 29.94 in 10.0 mi NNE 8.1 mph - N/A   Clear
2:35 AM 59.0 °F 55.4 °F 88% 29.93 in 10.0 mi NNE 8.1 mph - N/A   Clear
2:55 AM 57.2 °F 55.4 °F 94% 29.93 in 10.0 mi NNE 6.9 mph - N/A   Clear
3:15 AM 57.2 °F 55.4 °F 94% 29.93 in 10.0 mi NNE 6.9 mph - N/A   Clear
3:35 AM 57.2 °F 55.4 °F 94% 29.93 in 10.0 mi NNE 8.1 mph - N/A   Clear
4:15 AM 57.2 °F 55.4 °F 94% 29.92 in 10.0 mi NE 6.9 mph - N/A   Clear
4:35 AM 57.2 °F 53.6 °F 88% 29.92 in 10.0 mi NE 8.1 mph - N/A   Clear
4:55 AM 59.0 °F 55.4 °F 88% 29.92 in 10.0 mi NE 9.2 mph - N/A   Clear
5:15 AM 59.0 °F 55.4 °F 88% 29.92 in 10.0 mi NE 8.1 mph - N/A   Clear
5:35 AM 57.2 °F 55.4 °F 94% 29.92 in 10.0 mi NE 6.9 mph - N/A   Clear
5:55 AM 57.2 °F 55.4 °F 94% 29.92 in 10.0 mi NNE 6.9 mph - N/A   Clear
6:15 AM 57.2 °F 55.4 °F 94% 29.93 in 10.0 mi NNE 6.9 mph - N/A   Clear
6:35 AM 55.4 °F 55.4 °F 100% 29.93 in 10.0 mi NNE 6.9 mph - N/A   Clear
6:55 AM 57.2 °F 55.4 °F 94% 29.93 in 10.0 mi NNE 6.9 mph - N/A   Clear
7:15 AM 59.0 °F 55.4 °F 88% 29.93 in 10.0 mi NE 9.2 mph - N/A   Clear
7:35 AM 60.8 °F 55.4 °F 82% 29.93 in 10.0 mi NE 8.1 mph - N/A   Clear
7:55 AM 62.6 °F 55.4 °F 77% 29.93 in 10.0 mi NE 9.2 mph - N/A   Clear
8:15 AM 62.6 °F 53.6 °F 72% 29.93 in 10.0 mi NE 10.4 mph - N/A   Clear
8:35 AM 64.4 °F 53.6 °F 68% 29.93 in 10.0 mi NE 9.2 mph - N/A   Clear
8:55 AM 64.4 °F 55.4 °F 73% 29.93 in 10.0 mi ENE 10.4 mph - N/A   Clear
9:15 AM 66.2 °F 55.4 °F 68% 29.93 in 10.0 mi East 9.2 mph - N/A   Clear
9:55 AM 68.0 °F 57.2 °F 68% 29.93 in 10.0 mi NE 8.1 mph - N/A   Clear
10:15 AM 68.0 °F 57.2 °F 68% 29.93 in 10.0 mi NE 9.2 mph - N/A   Clear
10:35 AM 69.8 °F 57.2 °F 64% 29.93 in 10.0 mi NE 9.2 mph - N/A   Clear
10:55 AM 69.8 °F 57.2 °F 64% 29.92 in 10.0 mi NE 8.1 mph 13.8 mph N/A   Clear
11:15 AM 71.6 °F 57.2 °F 60% 29.92 in 10.0 mi ENE 8.1 mph - N/A   Clear
11:35 AM 71.6 °F 57.2 °F 60% 29.92 in 10.0 mi NE 8.1 mph - N/A   Clear
11:55 AM 73.4 °F 57.2 °F 57% 29.92 in 10.0 mi NE 8.1 mph - N/A   Clear
12:15 PM 75.2 °F 57.2 °F 53% 29.91 in 10.0 mi NE 10.4 mph - N/A   Partly Cloudy
1:15 PM 73.4 °F 57.2 °F 57% 29.90 in 10.0 mi ESE 9.2 mph - N/A   Mostly Cloudy
1:35 PM 73.4 °F 57.2 °F 57% 29.90 in 10.0 mi Variable 6.9 mph 15.0 mph N/A   Mostly Cloudy
1:55 PM 75.2 °F 57.2 °F 53% 29.89 in 10.0 mi SE 8.1 mph - N/A   Mostly Cloudy
2:35 PM 75.2 °F 57.2 °F 53% 29.89 in 10.0 mi ESE 10.4 mph - N/A   Mostly Cloudy
4:15 PM 77.0 °F 55.4 °F 47% 29.88 in 10.0 mi SSE 9.2 mph - N/A   Partly Cloudy
4:35 PM 77.0 °F 55.4 °F 47% 29.88 in 10.0 mi SSE 8.1 mph - N/A   Partly Cloudy
4:55 PM 77.0 °F 55.4 °F 47% 29.87 in 10.0 mi SSE 10.4 mph 16.1 mph N/A   Clear
5:15 PM 77.0 °F 55.4 °F 47% 29.87 in 10.0 mi South 10.4 mph - N/A   Partly Cloudy
5:35 PM 77.0 °F 55.4 °F 47% 29.87 in 10.0 mi SE 6.9 mph - N/A   Mostly Cloudy
6:15 PM 75.2 °F 53.6 °F 47% 29.86 in 10.0 mi SE 4.6 mph 11.5 mph N/A   Mostly Cloudy
6:35 PM 75.2 °F 55.4 °F 50% 29.86 in 10.0 mi South 9.2 mph - N/A   Scattered Clouds
6:55 PM 75.2 °F 57.2 °F 53% 29.86 in 10.0 mi SE 11.5 mph - N/A   Mostly Cloudy
7:15 PM 75.2 °F 57.2 °F 53% 29.86 in 10.0 mi SE 9.2 mph - N/A   Scattered Clouds
7:35 PM 75.2 °F 57.2 °F 53% 29.87 in 10.0 mi SE 10.4 mph - N/A   Partly Cloudy
7:55 PM 73.4 °F 57.2 °F 57% 29.87 in 10.0 mi SE 11.5 mph - N/A   Scattered Clouds
8:15 PM 73.4 °F 55.4 °F 53% 29.86 in 10.0 mi SE 11.5 mph - N/A   Partly Cloudy
8:35 PM 71.6 °F 57.2 °F 60% 29.87 in 10.0 mi SE 9.2 mph - N/A   Partly Cloudy
8:55 PM 69.8 °F 55.4 °F 60% 29.86 in 10.0 mi SSE 8.1 mph - N/A   Partly Cloudy
9:15 PM 68.0 °F 55.4 °F 64% 29.86 in 10.0 mi SE 8.1 mph - N/A   Clear
9:35 PM 66.2 °F 55.4 °F 68% 29.87 in 10.0 mi SSE 8.1 mph - N/A   Clear
9:55 PM 66.2 °F 55.4 °F 68% 29.87 in 10.0 mi SSE 8.1 mph - N/A   Clear
10:15 PM 64.4 °F 55.4 °F 73% 29.87 in 10.0 mi SSE 8.1 mph - N/A   Partly Cloudy
10:35 PM 64.4 °F 55.4 °F 73% 29.88 in 10.0 mi SSE 9.2 mph - N/A   Partly Cloudy
11:15 PM 62.6 °F 55.4 °F 77% 29.87 in 10.0 mi SSE 9.2 mph - N/A   Clear
11:35 PM 62.6 °F 55.4 °F 77% 29.87 in 10.0 mi SSE 9.2 mph - N/A   Clear
11:55 PM 64.4 °F 55.4 °F 73% 29.87 in 10.0 mi SSE 10.4 mph - N/A   Clear